Sisseton, SD

12:53 AM CDT on October 22, 2017 (GMT -0500)
Sisseton

Weather History for K8D3 - June, 2012

Change the Weather History Date:

Saturday, June 23, 2012

  Actual Average Record
Temperature  
Mean Temperature 73 °F 68 °F  
Max Temperature 83 °F 79 °F 100 °F (1937)
Min Temperature 63 °F 57 °F 41 °F (1903)
Degree Days  
Heating Degree Days 0 1  
Month to date heating degree days 27 56  
Since 1 June heating degree days 27 56  
Since 1 July heating degree days 6645 8277  
Cooling Degree Days 8 4  
Month to date cooling degree days 117 62  
Year to date cooling degree days 175 85  
Since 1 June cooling degree days 117 62  
Growing Degree Days 22 (Base 50)    
Moisture  
Dew Point 62 °F    
Average Humidity 72    
Maximum Humidity 93    
Minimum Humidity 51    
Precipitation  
Precipitation 0.07 in 0.12 in 1.28 in (1959)
Month to date precipitation 2.62 2.99  
Year to date precipitation 10.90 9.97  
Sea Level Pressure  
Sea Level Pressure 29.78 in    
Wind  
Wind Speed 8 mph (SSE)    
Max Wind Speed 16 mph    
Max Gust Speed 23 mph    
T = Trace of Precipitation, MM = Missing Value Source: NWS Daily Summary

Daily Weather History Graph

Daily Weather History Graph

Search for Another Location

Airport or City:

Trip Planner

Search our weather history database for the weather conditions in past years. The results will help you decide how hot, cold, wet, or windy it might be!

Date:

Astronomy

Jun. 23, 2012 Rise Set
Actual Time 5:39 AM CDT 9:21 PM CDT
Civil Twilight 5:00 AM CDT 9:59 PM CDT
Nautical Twilight 4:09 AM CDT 10:50 PM CDT
Astronomical Twilight 2:59 AM CDT 12:00 AM CDT
Moon 9:55 AM CDT (6/23) 11:35 PM CDT (6/23)
Length of Visible Light 16h 58m
Length of Day
15h 42m
Waxing Crescent, 16% of the Moon is Illuminated
Jun 23
Waxing Crescent
Jun 26
First Quarter
Jul 3
Full
Jul 10
Last Quarter
Jul 18
New

Hourly Weather History & Observations

Time (CDT) Temp. Heat Index Dew Point Humidity Pressure Visibility Wind Dir Wind Speed Gust Speed Precip Events Conditions
12:56 AM 66.0 °F - 59.0 °F 78% 29.84 in - SSE 3.5 mph - N/A   Unknown
1:56 AM 66.9 °F - 59.0 °F 76% 29.82 in - South 6.9 mph - N/A   Unknown
2:56 AM 66.0 °F - 60.1 °F 81% 29.80 in - SSE 5.8 mph - N/A   Unknown
3:56 AM 64.9 °F - 60.1 °F 84% 29.80 in - North 4.6 mph - N/A   Unknown
4:56 AM 64.0 °F - 60.1 °F 87% 29.78 in - ESE 11.5 mph - 0.07 in   Unknown
5:56 AM 63.0 °F - 60.1 °F 90% 29.77 in - SSE 5.8 mph - N/A   Unknown
6:56 AM 64.0 °F - 61.0 °F 90% 29.79 in - South 4.6 mph - N/A   Unknown
7:56 AM 66.9 °F - 62.1 °F 84% 29.79 in - South 9.2 mph - N/A   Unknown
8:56 AM 70.0 °F - 60.1 °F 71% 29.79 in - South 10.4 mph 18.4 mph N/A   Unknown
9:56 AM 73.0 °F - 59.0 °F 61% 29.78 in - South 12.7 mph - N/A   Unknown
10:56 AM 75.0 °F - 57.9 °F 55% 29.77 in - South 13.8 mph - N/A   Unknown
11:56 AM 78.1 °F - 59.0 °F 52% 29.75 in - South 11.5 mph 19.6 mph N/A   Unknown
12:56 PM 79.0 °F - 59.0 °F 50% 29.76 in - SE 10.4 mph 19.6 mph N/A   Unknown
1:56 PM 80.1 °F 81.1 °F 61.0 °F 52% 29.75 in - South 11.5 mph - N/A   Unknown
2:56 PM 82.0 °F 83.0 °F 62.1 °F 51% 29.74 in - SE 15.0 mph - N/A   Unknown
3:56 PM 82.9 °F 84.4 °F 64.0 °F 53% 29.73 in - SSE 11.5 mph - N/A   Unknown
4:56 PM 82.0 °F 83.8 °F 64.9 °F 56% 29.73 in - SSE 9.2 mph - N/A   Unknown
5:56 PM 82.9 °F 84.4 °F 64.0 °F 53% 29.74 in - South 8.1 mph - N/A   Unknown
6:56 PM 81.0 °F 82.7 °F 64.9 °F 58% 29.76 in - SE 6.9 mph - N/A   Unknown
7:56 PM 80.1 °F 82.1 °F 66.0 °F 62% 29.77 in - ESE 5.8 mph - N/A   Unknown
8:56 PM 78.1 °F - 68.0 °F 71% 29.76 in - SSE 6.9 mph - N/A   Unknown
9:56 PM 75.0 °F - 68.0 °F 79% 29.79 in - Calm Calm - N/A   Unknown
10:56 PM 72.0 °F - 66.9 °F 84% 29.81 in - Calm Calm - N/A   Unknown
11:56 PM 70.0 °F - 66.9 °F 90% 29.83 in - ENE 3.5 mph - N/A   Unknown